This demonstration page uses our WeatherBlox Daily Observations layout. Learn more.

Left ArrowRight Arrow

39.01783, -85.05884

Hourly Observations for August 13, 2022

Temp ( °F °C ) Dew Point ( °F °C ) Humidity (%) Winds ( mph kmh ) Pressure ( in mb ) Visibility ( mi km ) Precip ( " mm )
12:52 am 00:52 Clear 64 17.8 58 14.4 80 80 N 3 6 30.14 1021 10 16 0.00 0.00
1:52 am 01:52 Clear 65 18.3 58 14.4 78 78 N 3 6 30.14 1021 10 16 0.00 0.00
2:52 am 02:52 Clear 63 17.2 58 14.4 84 84 N 6 9 30.14 1021 10 16 0.00 0.00
3:52 am 03:52 Clear 64 17.8 57 13.9 78 78 NNE 5 7 30.13 1020 10 16 0.00 0.00
4:52 am 04:52 Mostly Clear 62 16.7 58 14.4 86 86 N 3 6 30.14 1021 10 16 0.00 0.00
5:52 am 05:52 Mostly Clear 61 16.1 58 14.4 90 90 N 5 7 30.14 1021 10 16 0.00 0.00
6:52 am 06:52 Mostly Sunny 61 16.1 58 14.4 90 90 N 3 6 30.15 1021 10 16 0.00 0.00
7:52 am 07:52 Mostly Sunny 63 17.2 59 15 87 87 NE 5 7 30.16 1021 10 16 0.00 0.00
8:52 am 08:52 Mostly Sunny 67 19.4 60 15.6 79 79 E 5 7 30.16 1021 10 16 0.00 0.00
9:52 am 09:52 Mostly Sunny 71 21.7 58 14.4 63 63 ESE 5 7 30.15 1021 10 16 0.00 0.00
10:52 am 10:52 Mostly Sunny 75 23.9 59 15 57 57 Calm 30.16 1021 10 16 0.00 0.00
11:52 am 11:52 Partly Cloudy 77 25 56 13.3 48 48 SSW 8 13 30.15 1021 10 16 0.00 0.00
12:52 pm 12:52 Mostly Sunny 78 25.6 55 12.8 45 45 Calm 30.14 1021 10 16 0.00 0.00
1:52 pm 13:52 Mostly Cloudy 78 25.6 54 12.2 43 43 E 6 9 30.12 1020 10 16 0.00 0.00
2:52 pm 14:52 Mostly Cloudy 80 26.7 57 13.9 45 45 SSE 6 9 30.09 1019 10 16 0.00 0.00
3:52 pm 15:52 Mostly Cloudy 81 27.2 57 13.9 44 44 VRB 5 7 30.07 1018 10 16 0.00 0.00
4:52 pm 16:52 Mostly Cloudy 81 27.2 56 13.3 42 42 SSE 9 15 30.05 1018 10 16 0.00 0.00
5:52 pm 17:52 Mostly Cloudy 80 26.7 58 14.4 47 47 SSW 6 9 30.04 1017 10 16 0.00 0.00
6:52 pm 18:52 Cloudy 76 24.4 60 15.6 58 58 WSW 5 7 30.03 1017 10 16 0.00 0.00
7:52 pm 19:52 Cloudy 76 24.4 61 16.1 60 60 Calm 30.02 1017 10 16 0.01 0.13
8:52 pm 20:52 Cloudy 74 23.3 60 15.6 62 62 SW 3 6 30.02 1017 10 16 0.00 0.00
9:52 pm 21:52 Cloudy 73 22.8 60 15.6 64 64 SE 3 6 30.03 1017 10 16 0.00 0.00
10:52 pm 22:52 Cloudy 73 22.8 60 15.6 64 64 ESE 6 9 30.04 1017 10 16 0.00 0.00
11:52 pm 23:52 Cloudy 74 23.3 62 16.7 66 66 SE 8 13 30.03 1017 10 16 0.00 0.00

Powered by AerisWeather